Location: Unspecified
(47.1121°N, 116.3927°W)
Time: 01:25:21
(UTC-07:00)

ISS - Pass Details

Date: 25 May 2019
Orbit: 407 x 419 km, 51.6° (Epoch: 26 June)

Event Time Altitude Azimuth Distance (km) Brightness Sun altitude
Rises 00:27:47 0° 295° (WNW) 2,365 0.4 -21.9°
Reaches altitude 10° 00:29:53 10° 294° (WNW) 1,501 -0.6 -21.9°
Enters shadow 00:31:52 32° 289° (WNW) 738 -2.4 -21.9°
